Flag for U.S.A. Weather past 2 weeks in San Antonio, Texas, U.S.A.

Now
78 °F

Broken clouds.


Feels Like: 81 °F
Forecast: 72 / 78 °F
Wind: 13 mph from Southeast

Location: San Antonio International Airport

Current Time: May 22, 2015 at 8:32:27 PM

Latest Report: May 22, 2015 at 7:51 PM


Visibility: 10 mi

Pressure: 29.98 "Hg

Humidity: 84%

Dew point: 73 °F

Location of San AntonioLocation

Historic Weather in San Antonio — Graph

°F

San Antonio temperature yesterday

Maximum temperature yesterday: 77 °F (at 12:51 AM)
Minimum temperature yesterday: 66 °F (at 11:51 PM)
Average temperature yesterday: 71 °F

Past Weeks' High & Low Weather Summary

 TemperatureHumidityPressure
High88 °F (May 9, 3:51 PM)96% (May 22, 9:51 AM)30.13 "Hg (May 22, 9:51 AM)
Low65 °F (May 22, 2:51 AM)59% (May 9, 3:51 PM)29.70 "Hg (May 9, 5:51 PM)
Average76 °F81%29.92 "Hg
* Reported May 7 6:51 PM — May 22 6:51 PM, San Antonio, Weather by CustomWeather, © 2015

Note: Actual official high and low records may vary slightly from our data, if they occured in-between our weather recording intervals... More about our weather records

Advertising

San Antonio weather history for previous 24 hours

 ConditionsComfort  
Time TempWeatherWind HumidityBarometerVisibility
6:51 PM
Fri, May 22
80 °FLight rain. Partly sunny.20 mph76%29.97 "Hg10 mi
5:51 PM86 °FBroken clouds.15 mph65%29.96 "Hg10 mi
4:51 PM84 °FBroken clouds.12 mph65%29.98 "Hg10 mi
3:51 PM83 °FBroken clouds.12 mph68%29.99 "Hg10 mi
2:51 PM83 °FBroken clouds.12 mph68%30.01 "Hg10 mi
1:51 PM80 °FPartly sunny.9 mph74%30.02 "Hg10 mi
1:02 PM78 °FMostly cloudy.12 mph79%30.08 "Hg10 mi
12:51 PM77 °FOvercast.13 mph79%30.04 "Hg10 mi
11:51 AM73 °FFog.10 mph88%30.04 "Hg4 mi
10:59 AM72 °FFog.12 mph87%30.08 "Hg2 mi
9:51 AM69 °FLight rain. Fog.9 mph96%30.06 "Hg1 mi
8:51 AM67 °FDrizzle. Fog.6 mph93%30.06 "Hg1 mi
7:51 AM67 °FDrizzle. Fog.7 mph90%30.04 "Hg0 mi
6:54 AM66 °FDrizzle. Fog.7 mph90%30.08 "Hg1 mi
5:51 AM65 °FDrizzle. Fog.9 mph94%30.02 "Hg2 mi
5:03 AM65 °FLow clouds.8 mph91%30.06 "Hg2 mi
4:51 AM65 °FLow clouds.7 mph91%30.02 "Hg8 mi
3:51 AM65 °FLow clouds.6 mph91%30.03 "Hg10 mi
2:51 AM65 °FDrizzle. Low clouds.9 mph91%30.05 "Hg8 mi
1:51 AM66 °FDrizzle. Low clouds.8 mph87%30.07 "Hg8 mi
12:51 AM66 °FLow clouds.7 mph87%30.07 "Hg10 mi
11:51 PM
Thu, May 21
66 °FLow clouds.9 mph84%30.05 "Hg10 mi
10:51 PM67 °FOvercast.10 mph81%30.03 "Hg10 mi
9:51 PM68 °FOvercast.8 mph82%30.03 "Hg10 mi
8:51 PM69 °FOvercast.9 mph79%30.04 "Hg10 mi
Weather by CustomWeather, © 2015

See weather overviewHow to use our weather pages